RH
31 29 18 18 14 8 17 19 14 10 11 13 11 10 11 17 29 36 48 59 64 63 57 59 67 81 73 68 63 57 45 40 45 43 39 40 38 38 42 44 48 37 46
35 25 19 20 14 8 17 18 14 11 11 10 9 8 8 16 33 41 48 60 66 73 70 69 71 84 74 68 64 57 50 41 46 50 48 41 36 40 40 46 43 47 48
16 19 21 19 13 8 17 19 14 11 9 11 10 8 8 18 45 48 56 60 66 75 73 74 77 89 75 66 59 59 51 52 58 62 67 56 61 52 44 54 47 52 56
20 18 17 18 14 10 13 17 16 13 11 13 12 14 14 16 43 58 60 60 69 79 80 81 81 93 87 66 56 56 51 52 66 72 72 69 56 58 59 65 62 59 67
14 13 15 18 15 11 11 13 14 14 12 11 10 14 16 21 39 68 69 69 76 81 84 85 86 88 95 73 59 58 56 54 60 64 66 58 55 61 73 64 69 70 74
13 14 19 21 13 12 12 13 14 13 11 12 9 10 22 24 33 50 80 81 83 81 87 88 90 93 99 82 66 64 62 55 58 61 50 47 58 66 64 68 70 73 79
13 15 22 20 12 14 13 14 14 14 11 11 8 19 28 33 34 50 78 87 88 77 78 90 92 99 98 94 75 70 63 58 64 68 68 59 73 82 70 70 74 80 84
13 15 22 19 14 16 13 14 15 13 12 10 8 14 34 40 51 60 56 70 81 75 71 74 74 90 98 96 88 75 64 60 70 73 81 88 98 97 89 88 92 95 92
12 16 21 18 15 16 14 15 17 14 11 8 8 11 24 36 60 75 67 61 57 60 61 70 77 80 98 97 96 87 70 72 78 83 83 93 95 96 98 100 99 94 95
10 14 20 15 12 15 16 13 15 13 10 9 9 9 11 24 59 72 80 79 68 71 75 75 81 93 89 97 98 95 77 81 78 80 92 90 90 88 85 87 84 86 77
12 13 16 12 10 18 17 13 16 14 11 8 8 10 8 11 39 61 80 81 84 79 87 91 94 98 96 95 98 96 93 93 77 82 88 92 97 94 86 78 75 68 65
10 9 12 9 10 21 18 14 15 16 11 9 8 8 8 9 14 21 77 82 84 88 88 92 93 100 95 100 94 99 97 95 89 92 88 93 96 94 91 86 76 70 72
10 9 8 9 19 23 20 15 15 16 12 9 9 10 9 9 27 37 76 77 89 88 87 96 97 94 95 100 100 97 94 96 98 96 94 91 91 96 93 93 83 86 88
11 9 16 16 27 24 22 18 16 16 14 11 9 10 10 12 46 62 76 88 84 92 93 100 100 97 96 100 100 99 96 99 99 86 80 71 77 95 93 92 86 81 74
12 13 22 27 30 28 25 20 19 18 15 12 10 10 11 15 54 68 80 81 98 98 97 99 99 98 100 99 100 100 99 100 99 95 85 80 93 92 83 87 82 76 73
16 15 27 29 34 31 27 22 20 19 17 13 10 10 12 19 59 67 78 82 94 100 100 98 100 100 97 99 100 100 100 98 98 99 84 97 100 99 96 84 89 97 92
21 17 21 34 38 32 29 29 18 19 22 18 12 10 14 22 56 77 94 88 94 98 96 96 100 100 100 100 99 97 100 100 100 98 100 98 99 99 90 97 94 62 43
44 46 24 38 46 34 31 31 24 23 26 21 14 11 15 36 67 95 92 100 98 93 95 96 100 100 100 100 99 99 98 100 98 96 96 92 97 71 57 43 38 33 27
94 63 50 57 61 45 35 33 32 28 28 23 16 12 15 44 76 86 99 96 97 100 99 99 99 100 98 100 97 99 100 100 96 96 99 98 91 55 35 28 20 15 13
100 65 45 52 85 76 48 40 36 32 28 23 20 14 16 42 79 78 94 92 99 97 98 98 100 100 100 100 100 99 100 98 98 96 62 42 36 25 18 15 13 12 12
100 92 68 49 55 100 63 51 38 34 28 23 23 18 18 35 43 46 46 81 97 94 99 93 93 100 100 100 100 99 100 100 96 62 26 20 18 15 14 13 13 13 14
66 73 89 51 44 91 100 58 47 46 36 36 29 23 20 26 36 37 51 66 100 98 98 98 99 98 100 100 100 100 99 97 68 29 20 18 17 16 16 15 15 15 18
56 61 62 45 50 68 99 96 59 70 57 51 39 31 26 28 35 37 51 96 99 100 98 98 99 100 98 98 100 99 77 75 98 94 48 22 20 19 19 18 17 18 18
50 49 51 91 63 84 99 96 89 69 58 48 51 44 36 41 52 45 42 68 100 100 100 100 100 100 99 100 99 60 33 28 27 33 52 59 30 20 19 18 18 19 18
53 52 50 49 60 65 100 82 74 96 64 64 72 61 49 48 63 60 47 46 85 97 100 100 99 98 100 99 98 63 36 32 26 24 21 20 20 20 20 21 21 21 21
56 49 52 52 53 95 82 100 97 98 81 69 79 78 64 57 65 66 56 45 58 98 100 100 100 100 99 92 79 53 48 51 42 31 25 31 34 41 56 66 68 64 61
Wind_Speed
17 18 11 10 11 8 10 10 8 8 9 10 11 11 12 13 14 15 16 15 14 13 13 12 13 12 11 10 9 9 9 9 10 11 13 14 15 16 15 15 16 19 19
19 17 13 13 13 10 10 11 10 9 10 11 11 10 11 12 13 14 16 17 16 14 12 14 14 14 13 11 11 11 10 11 12 12 14 16 16 16 16 16 19 20 21
7 10 14 15 13 11 11 12 11 10 10 10 10 9 11 12 13 14 16 17 18 16 15 15 15 16 14 13 13 13 12 11 12 14 15 17 17 17 19 19 21 21 22
17 19 20 16 13 11 13 13 13 11 11 11 9 9 11 14 15 15 16 18 18 18 16 16 16 16 17 14 15 14 14 14 14 15 16 18 20 21 20 22 22 23 22
21 23 20 18 14 13 13 14 15 14 13 11 10 11 13 14 16 16 16 18 19 19 17 17 17 18 18 19 18 16 16 16 15 15 18 20 22 22 22 24 23 23 22
24 21 20 17 16 14 13 15 16 16 15 12 11 12 13 15 17 18 18 18 19 20 17 17 17 19 20 25 20 19 19 18 17 17 20 20 21 23 24 23 23 23 23
24 20 18 18 17 14 15 16 18 17 16 14 12 11 11 15 18 19 19 19 20 20 22 18 18 18 24 23 21 21 21 20 20 20 21 22 23 28 27 25 24 25 24
25 22 21 19 19 16 18 18 18 18 17 14 13 12 13 18 19 18 19 20 21 22 21 20 21 23 37 22 24 24 23 22 22 23 22 22 20 32 27 25 29 30 26
28 26 22 24 22 19 19 19 19 19 17 15 14 14 16 19 18 18 19 20 19 21 22 26 21 25 35 33 26 27 26 25 24 25 26 24 19 23 21 24 12 25 25
28 29 29 27 27 23 20 20 19 18 17 15 16 16 17 20 19 19 18 21 21 23 24 25 25 23 41 23 31 30 29 28 26 27 26 25 25 25 25 21 13 8 12
29 31 33 30 27 24 21 21 19 18 18 18 16 17 18 19 17 18 20 21 23 25 24 24 26 26 18 28 32 32 32 31 28 27 27 26 24 24 25 20 14 12 12
25 29 32 30 25 27 21 20 20 20 19 19 17 19 17 16 16 18 20 18 22 25 26 28 30 23 28 35 27 36 34 34 34 29 28 26 23 20 24 24 17 14 15
24 24 26 25 26 27 21 22 22 22 20 20 17 18 19 15 15 17 19 16 22 25 24 30 29 26 35 33 38 31 38 32 37 29 26 24 19 18 20 23 21 19 17
24 24 26 26 27 24 22 23 24 24 20 20 19 18 19 14 15 17 17 11 17 21 21 29 31 23 33 38 38 40 42 36 33 34 30 27 23 22 25 22 21 19 17
26 26 25 28 27 26 24 25 25 24 20 21 20 18 18 12 14 18 16 7 8 20 18 26 27 24 33 30 33 35 32 33 31 32 28 27 27 25 24 22 19 18 17
26 28 26 29 29 27 26 26 25 22 20 20 20 18 18 11 12 18 17 15 16 24 30 20 23 26 25 27 28 31 32 33 30 35 31 30 26 24 26 31 18 18 18
27 27 28 29 31 30 27 26 24 21 20 20 19 18 18 13 10 17 11 16 14 30 29 26 28 32 37 38 37 36 34 36 31 34 29 28 24 18 16 18 20 21 18
34 30 29 30 33 32 28 27 25 22 21 20 19 18 17 15 11 14 15 20 16 23 36 27 34 39 41 44 46 46 43 38 38 38 32 32 26 19 19 20 19 18 17
34 34 30 30 31 33 31 29 27 24 23 21 20 19 18 16 15 18 24 24 29 23 24 30 33 36 33 38 36 29 39 35 28 28 34 24 20 21 20 19 18 17 16
34 37 37 37 27 32 34 33 29 27 26 23 21 20 19 18 18 21 25 25 31 30 28 30 31 36 38 38 35 35 33 31 23 20 22 23 23 21 18 18 17 16 15
40 36 34 39 37 32 38 36 31 29 28 25 22 21 20 20 19 20 23 28 32 30 30 29 30 36 33 33 32 30 33 35 25 23 23 22 20 19 18 18 17 16 15
44 43 41 39 36 36 35 39 34 31 31 28 24 24 22 22 22 20 21 26 30 31 32 29 35 29 34 38 31 30 33 31 28 22 22 20 20 19 18 17 17 16 16
42 47 46 49 43 40 39 38 39 36 36 33 28 28 26 25 25 22 22 26 32 30 29 31 36 37 39 36 36 28 24 24 29 28 23 19 19 18 17 17 16 16 15
31 30 36 43 47 44 43 45 43 42 38 33 32 31 29 28 27 23 22 25 31 32 31 37 32 38 35 35 29 24 23 21 23 27 24 24 21 18 16 15 15 14 14
39 34 32 33 42 49 43 49 45 45 40 36 36 34 33 31 30 26 25 25 30 32 33 39 40 41 35 35 35 36 27 21 21 20 20 20 20 19 17 14 13 12 12
45 47 41 36 34 38 44 44 44 41 41 42 40 38 37 35 34 31 28 27 29 35 38 42 43 41 35 26 23 21 23 23 23 24 20 18 16 15 14 14 15 16 17
Wind_Direction
256 276 278 296 305 270 242 259 266 262 255 256 254 251 244 238 231 226 223 225 227 225 221 219 222 209 207 207 202 194 193 189 180 181 175 178 177 177 173 166 160 156 152
258 266 269 299 303 276 244 256 259 265 263 259 260 258 249 238 232 230 226 225 228 227 229 222 221 215 208 208 201 193 191 184 178 178 174 171 174 171 168 164 156 155 151
259 269 286 296 302 276 250 256 261 267 259 257 262 260 252 240 232 229 227 224 227 230 227 228 220 211 208 207 199 192 189 186 181 175 171 173 170 166 165 162 157 154 152
283 287 290 290 300 284 257 257 264 272 268 262 268 255 246 237 230 229 226 224 224 225 223 227 228 216 202 202 200 193 186 185 181 176 171 169 161 161 167 159 156 155 152
279 285 282 285 295 294 262 260 264 272 271 270 269 255 249 239 231 227 227 224 223 227 229 229 231 227 218 207 203 193 186 185 183 180 172 165 166 162 158 155 158 158 154
289 278 276 279 296 290 267 263 268 269 267 268 266 257 250 242 233 228 225 223 225 230 232 231 230 226 223 198 195 189 186 184 180 175 168 168 169 163 160 160 163 162 160
277 275 267 276 294 287 270 265 266 265 265 267 264 258 247 242 235 229 227 226 227 230 235 230 228 232 236 192 189 189 187 185 176 172 174 173 181 167 162 164 168 168 166
272 272 267 276 289 280 270 264 261 263 264 266 263 250 248 248 237 231 230 231 234 237 241 241 245 237 234 196 189 191 188 185 179 176 170 170 180 160 163 171 176 170 170
266 267 255 274 281 276 269 261 259 262 264 262 260 250 248 250 244 237 235 237 233 241 239 244 255 248 235 220 190 190 189 186 182 177 176 177 181 160 157 162 169 166 163
261 262 259 269 275 272 270 262 262 258 262 260 254 250 249 246 241 242 239 235 233 235 234 239 246 230 222 215 187 190 188 187 184 184 183 184 183 182 182 188 199 164 147
259 262 264 267 265 262 262 260 261 257 256 255 258 256 253 254 249 246 243 237 234 236 234 240 239 206 198 188 195 192 186 186 182 185 182 183 183 183 181 183 184 180 171
262 261 260 259 253 251 256 257 257 257 257 257 256 260 266 259 256 248 244 235 232 234 238 238 240 230 218 194 197 191 192 189 179 182 182 182 185 186 179 176 176 187 180
260 251 246 245 238 248 255 252 252 256 257 259 258 263 264 263 254 242 237 242 242 237 229 251 221 208 189 199 200 201 198 193 188 182 182 182 190 189 186 176 184 191 185
258 242 237 229 233 244 249 250 252 255 256 254 256 261 266 267 257 235 224 248 239 229 226 210 180 186 193 209 210 190 190 196 206 183 189 191 191 188 177 183 190 193 194
247 240 232 226 232 241 244 247 248 254 253 251 256 260 265 267 251 219 227 258 240 169 170 167 176 193 185 184 187 195 200 193 175 182 187 189 185 193 189 188 195 200 205
238 230 229 229 233 239 243 246 246 251 252 249 255 261 266 261 231 216 215 199 177 210 183 182 183 177 174 179 178 168 181 184 183 191 188 185 184 199 200 198 202 217 219
243 230 229 231 235 235 238 244 246 245 248 250 252 256 263 260 223 203 195 202 181 174 178 175 195 175 177 182 190 196 194 181 194 186 196 204 210 209 195 200 211 224 224
226 226 225 230 234 236 234 238 239 244 247 248 246 248 251 248 228 199 179 161 186 197 206 215 195 185 194 185 182 196 196 206 202 204 204 207 210 212 212 214 215 218 221
229 219 217 221 230 233 233 232 234 238 241 241 242 245 248 239 206 208 187 187 196 176 180 186 191 191 183 182 189 195 195 194 192 194 203 209 207 214 212 216 220 222 223
215 222 217 212 208 234 229 229 230 233 236 236 238 239 239 234 215 204 207 207 198 209 211 206 207 204 205 207 204 211 218 201 198 192 201 202 209 213 214 219 222 226 228
216 215 217 216 209 212 232 228 228 232 234 236 237 236 232 230 225 213 214 209 210 218 221 219 219 226 217 216 215 204 198 206 189 200 207 206 207 210 213 218 222 226 232
228 228 216 218 215 204 222 228 226 232 235 239 237 236 228 229 229 231 220 214 207 214 218 223 219 220 219 212 206 207 206 196 187 200 208 209 211 210 212 217 221 224 228
230 235 231 228 224 215 216 224 225 232 231 232 233 234 232 229 231 232 221 207 209 211 224 218 218 205 208 213 202 203 198 209 205 203 211 213 212 214 216 219 222 226 230
233 231 230 222 226 218 218 216 226 232 233 233 232 234 235 233 233 232 225 215 210 206 207 199 203 192 214 220 193 187 199 209 209 208 215 218 224 226 223 224 224 227 234
244 239 235 231 224 220 219 231 223 234 229 229 232 231 231 233 231 230 222 217 210 213 205 210 211 217 226 220 203 187 189 203 207 214 220 213 211 214 217 221 230 238 245
247 240 238 234 230 224 220 218 224 231 233 227 227 227 229 230 229 223 219 213 208 206 206 211 214 216 214 200 194 196 199 202 210 217 208 202 202 207 221 247 262 261 264